Simultaneous Nadir Overpasses (SNOs) Predictions

Prediction of SNOs between LANDSAT-8 and METOP-A Satellite Orbit:

Table of predicted SNOs for the next 14.0 days since TLE Epoch: 10/9/2015
Index Date (LANDSAT-8) Time (LANDSAT-8) Lat,Lon (LANDSAT-8) SZA (LANDSAT-8 ) Date (METOP-A) Time (METOP-A) Lat,Lon (METOP-A) SZA (METOP-A ) Distance(km) Time Diff (sec)
1 10/11/2015 00:49:37 81.24,-150.47 90.60 10/11/2015 00:49:28 81.25,-150.53 90.59 0.98 9
2 10/11/2015 01:39:03 -81.26, 17.46 89.35 10/11/2015 01:40:07 -81.26, 17.41 89.33 0.86 64
3 10/13/2015 20:23:51 81.26, -83.72 91.71 10/13/2015 20:23:47 81.26, -83.74 91.71 0.54 4
4 10/13/2015 21:13:18 -81.26, 83.86 88.29 10/13/2015 21:14:27 -81.26, 83.84 88.26 0.65 69
5 10/16/2015 15:08:39 -81.25, 174.89 87.28 10/16/2015 15:07:26 -81.25, 175.00 87.30 1.73 73
6
